Location: Newark
(9.4667°S, 159.8167°E)
Time: 07:25:40
(UTC+00:00)

Courier 1B Rocket - Pass Details

Date: 22 November 2019
Orbit: 920 x 1202 km, 28.2° (Epoch: 09 December)

Event Time Altitude Azimuth Distance (km) Brightness Sun altitude
Rises 23:38:28 0° 268° (W) 3,549 7.7 66.1°
Reaches altitude 10° 23:41:47 10° 285° (WNW) 2,605 7.1 66.8°
Maximum altitude 23:46:10 20° 330° (NNW) 2,007 6.7 67.7°
Drops below altitude 10° 23:50:38 10° 15° (NNE) 2,654 7.4 68.7°
Sets 23:54:04 0° 32° (NNE) 3,636 8.0 69.4°
